Weather History for Trinidad, CO

Change the Weather History Date:

Wednesday, July 31, 2013

  Actual Average Record
Temperature  
Mean Temperature 77 °F 73 °F  
Max Temperature 89 °F 88 °F 98 °F (1987)
Min Temperature 64 °F 58 °F 50 °F (1968)
Degree Days  
Heating Degree Days 0 0  
Month to date heating degree days 0 0  
Since 1 June heating degree days 21 42  
Since 1 July heating degree days 0 3  
Cooling Degree Days 12 8  
Month to date cooling degree days 303 266  
Year to date cooling degree days 647 435  
Since 1 June cooling degree days 584 407  
Growing Degree Days 26 (Base 50)    
Moisture  
Dew Point 52 °F    
Average Humidity 52    
Maximum Humidity 78    
Minimum Humidity 26    
Precipitation  
Precipitation T in 0.09 in 1.34 in (1977)
Month to date precipitation 2.37 2.30  
Year to date precipitation 5.39 8.23  
Sea Level Pressure  
Sea Level Pressure 30.07 in    
Wind  
Wind Speed 8 mph (SSW)    
Max Wind Speed 24 mph    
Max Gust Speed 29 mph    
Visibility 10 miles    
Events Rain , Thunderstorm    
T = Trace of Precipitation, MM = Missing Value Source: NWS Daily Summary

Daily Weather History Graph

Daily Weather History Graph

Search for Another Location

Airport:

Trip Planner

Search our weather history database for the weather conditions in past years. The results will help you decide how hot, cold, wet, or windy it might be!

Date:

Astronomy

Jul. 31, 2013 Rise Set
Actual Time 6:01 AM MDT 8:05 PM MDT
Civil Twilight 5:32 AM MDT 8:34 PM MDT
Nautical Twilight 4:57 AM MDT 9:09 PM MDT
Astronomical Twilight 4:19 AM MDT 9:47 PM MDT
Moon 12:58 AM MDT (7/31) 3:23 PM MDT (7/31)
Length of Visible Light 15h 01m
Length of Day
14h 04m
Waning Crescent, 31% of the Moon is Illuminated
Jul 31
Waning Crescent
Aug 6
New
Aug 14
First Quarter
Aug 20
Full
Aug 28
Last Quarter

Hourly Weather History & Observations

Time (MDT) Temp. Heat Index Dew Point Humidity Pressure Visibility Wind Dir Wind Speed Gust Speed Precip Events Conditions
12:54 AM 68.0 °F - 50.0 °F 52% 30.04 in 10.0 mi Calm Calm - N/A   Clear
1:54 AM 68.0 °F - 55.0 °F 63% 30.04 in 10.0 mi NE 6.9 mph - N/A   Clear
2:54 AM 69.1 °F - 57.9 °F 68% 30.04 in 10.0 mi NW 4.6 mph - N/A   Clear
3:54 AM 66.9 °F - 59.0 °F 76% 30.04 in 10.0 mi WNW 5.8 mph - N/A   Clear
4:54 AM 68.0 °F - 57.9 °F 70% 30.03 in 10.0 mi West 5.8 mph - N/A   Clear
5:54 AM 66.9 °F - 57.9 °F 73% 30.06 in 10.0 mi WNW 9.2 mph - N/A   Clear
6:54 AM 64.9 °F - 57.9 °F 78% 30.09 in 10.0 mi WSW 9.2 mph - N/A   Clear
7:54 AM 71.1 °F - 57.0 °F 61% 30.11 in 10.0 mi West 11.5 mph - N/A   Clear
8:54 AM 75.9 °F - 57.9 °F 54% 30.12 in 10.0 mi WSW 4.6 mph - N/A   Clear
9:54 AM 79.0 °F - 50.0 °F 36% 30.11 in 10.0 mi Calm Calm - N/A   Clear
10:54 AM 82.0 °F - 46.9 °F 29% 30.11 in 10.0 mi ESE 4.6 mph - N/A   Clear
11:54 AM 84.0 °F - 48.9 °F 29% 30.09 in 10.0 mi NNE 6.9 mph - N/A   Clear
12:54 PM 86.0 °F - 50.0 °F 29% 30.04 in 10.0 mi East 4.6 mph - N/A   Clear
1:54 PM 87.1 °F - 48.9 °F 27% 30.03 in 10.0 mi Variable 3.5 mph - N/A   Clear
2:13 PM 87.8 °F - 51.8 °F 29% 30.30 in 10.0 mi SE 12.7 mph - N/A Thunderstorm Partly Cloudy
2:28 PM 87.8 °F 86.1 °F 55.4 °F 33% 30.29 in 10.0 mi South 12.7 mph 19.6 mph N/A   Partly Cloudy
2:54 PM 88.0 °F - 52.0 °F 29% 29.98 in 10.0 mi South 9.2 mph 16.1 mph N/A   Clear
3:54 PM 88.0 °F - 48.0 °F 25% 29.97 in 10.0 mi South 11.5 mph 17.3 mph N/A   Partly Cloudy
4:32 PM 84.2 °F - 48.2 °F 29% 30.25 in 10.0 mi SSE 9.2 mph - N/A Thunderstorm Partly Cloudy
4:47 PM 86.0 °F - 48.2 °F 27% 30.24 in 10.0 mi SSE 6.9 mph - N/A   Mostly Cloudy
4:54 PM 88.0 °F - 48.0 °F 25% 29.96 in 10.0 mi ESE 9.2 mph - 0.00 in Rain Light Rain
5:54 PM 88.0 °F - 48.0 °F 25% 29.94 in 10.0 mi East 9.2 mph - 0.00 in   Clear
6:54 PM 82.9 °F - 48.9 °F 31% 29.98 in 10.0 mi SSW 17.3 mph - N/A   Clear
7:54 PM 78.1 °F - 53.1 °F 42% 29.99 in 10.0 mi West 10.4 mph - N/A   Clear
8:54 PM 75.9 °F - 52.0 °F 43% 30.01 in 10.0 mi WSW 19.6 mph 27.6 mph N/A   Clear
9:54 PM 73.0 °F - 51.1 °F 46% 30.02 in 10.0 mi WSW 16.1 mph - N/A   Clear
10:54 PM 73.0 °F - 51.1 °F 46% 30.02 in 10.0 mi WSW 9.2 mph - N/A   Clear
11:54 PM 68.0 °F - 54.0 °F 61% 30.01 in 10.0 mi Calm Calm - N/A   Clear